Regional Weather Roundup
Issued by NWS

Home | Current Version | Previous Version | Graphics & Text | Print | Product List | Glossary On
Versions: 1 2 3 4 5 6 7 8 9 10 11 12 13 14 15 16 17 18 19 20 21 22 23 24 25 26 27 28 29 30 31 32 33 34 35 36 37 38 39 40 41 42 43 44 45 46 47 48 49 50
000
ASUS43 KDTX 230901
RWRMI
MICHIGAN HOURLY REGIONAL WEATHER ROUNDUP
NATIONAL WEATHER SERVICE DETROIT/PONTIAC MI
500 AM EDT FRI JUN 23 2017

NOTE: "FAIR" INDICATES FEW OR NO CLOUDS BELOW 12,000 FEET WITH NO
SIGNIFICANT WEATHER AND/OR OBSTRUCTION TO VISIBILITY.

MIZ047>049-052>055-059>063-066>070-074>076-081>083-231000-
SOUTHEAST LOWER MICHIGAN

CITY           SKY/WX    TMP DP  RH WIND       PRES   REMARKS
ADRIAN         CLOUDY    72  68  87 SW10      29.68F
ALMA           RAIN      66  65  95 N10       29.65F
ANN ARBOR      CLOUDY    72  68  87 S6        29.67F
BAD AXE        HVY RAIN  65  65 100 SE7       29.66F
CARO           RAIN      66  66 100 CALM      29.66F
DETROIT CITY   CLOUDY    73  68  84 SW10      29.66F
DETROIT        CLOUDY    73  68  84 SW14      29.68F
FLINT          CLOUDY    70  67  90 NE3       29.66F
GROSSE ILE     CLOUDY    73  68  84 SW6       29.67F
HILLSDALE      LGT RAIN  70  66  88 SW9       29.68F
HOWELL         LGT RAIN  70  66  88 SW3       29.67F

CITY           SKY/WX    TMP DP  RH WIND       PRES   REMARKS
JACKSON        CLOUDY    72  67  84 SW10      29.67F
LAMBERTVILLE   CLOUDY    72  67  84 SW9       29.68F
LANSING        CLOUDY    74  67  78 S9        29.65F
LAPEER         LGT RAIN  68  66  95 N8G22     29.67F
MASON          LGT RAIN  71  69  93 SW5       29.67F
MONROE         CLOUDY    73  67  82 SW10G20   29.67F
MT. CLEMENS    CLOUDY    73  70  90 SW10      29.64F
PONTIAC        CLOUDY    71  69  93 SW7       29.66F
PORT HOPE        N/A     66  64  93 VRB6      29.62S
PORT HURON     CLOUDY    70  66  88 S3        29.66S
TRI CITIES     RAIN      66  66 100 SE10      29.65F FOG
MIDLAND        HVY RAIN  66  65  96 SE7       29.63F
TROY           CLOUDY    73  67  83 S7        29.68F
SAGINAW HB     RAIN      64  63  94 SE6       29.65F
$$
MIZ043>046-050>051-056>058-064>065-071>073-077>080-231000-
SOUTHWEST LOWER MICHIGAN

CITY           SKY/WX    TMP DP  RH WIND       PRES   REMARKS
BATTLE CREEK   CLOUDY    71  70  96 SW9       29.67F FOG
BENTON HARBOR  CLOUDY    75  69  81 SW10      29.65F
BIG RAPIDS     LGT RAIN  65  63  94 S6        29.66R
COLDWATER      CLOUDY    71  69  95 SW6       29.67F
FREMONT        RAIN      65  65 100 N3        29.64F
HOLLAND        LGT RAIN  74  69  85 SW17G24   29.63S
GRAND RAPIDS   CLOUDY    72  71  97 SW14      29.63F FOG
IONIA          CLOUDY    73  68  87 SW14G20   29.63S
KALAMAZOO      LGT RAIN  71  68  90 S8        29.66F FOG
LUDINGTON      RAIN      64  64 100 CALM      29.62S
MARSHALL       RAIN      71  70  98 SW6       29.66F
MOUNT PLEASANT HVY RAIN  65  64  96 CALM      29.63S
MUSKEGON       LGT RAIN  69  67  93 VRB6      29.64R
SOUTH HAVEN    CLOUDY    74  71  90 SW10G20   29.64F
$$
MIZ016>042-231000-
NORTHERN LOWER MICHIGAN

CITY           SKY/WX    TMP DP  RH WIND       PRES   REMARKS
ALPENA         CLOUDY    66  66 100 CALM      29.61F
BEAVER ISLAND  FOG       61  61 100 W7        29.64R VSB 3/4
BELLAIRE       RAIN      65  64  95 SW3       29.63S
CADILLAC       RAIN      64  63  97 CALM      29.65R
CHARLEVOIX     CLOUDY    65  65 100 W10       29.65F FOG
FRANKFORT      RAIN     N/A N/A N/A CALM      29.60F
GAYLORD        LGT RAIN  65  62  90 SW6       29.64R
GRAYLING       RAIN      64  63  98 CALM      29.65S
HARBOR SPRINGS CLOUDY    63  63 100 CALM      29.62S
HOUGHTON LAKE  LGT RAIN  65  63  93 CALM      29.65F
MANISTEE       RAIN      64  64 100 VRB3      29.58F
OSCODA         RAIN      67  66  96 CALM      29.61F
PELLSTON       CLOUDY    63  61  93 NW5       29.62S
ROGERS CITY    CLOUDY    64  63  97 CALM      29.61F FOG
TRAVERSE CITY  LGT RAIN  66  64  93 W3        29.61F
$$
MIZ007>008-015-231000-
EASTERN UPPER MICHIGAN

CITY           SKY/WX    TMP DP  RH WIND       PRES   REMARKS
KINROSS        FOG       61  60  97 W5        29.61F VSB 1/4
MACKINAC ISLAN FOG       61  61 100 NW5       29.60F VSB 1
NEWBERRY       FOG       58  57  97 CALM      29.62S VSB 3/4
S. S. MARIE    FOG       61  60  97 NW3       29.61S VSB 1/2
MUNISING         N/A     61  57  87 N5        29.61F
$$
MIZ004>006-011>014-085-231000-
CENTRAL UPPER MICHIGAN

CITY           SKY/WX    TMP DP  RH WIND       PRES   REMARKS
MANISTIQUE     FOG       60  57  89 CALM      29.62R VSB 3/4
ESCANABA       CLOUDY    61  60  97 CALM      29.62F
MENOMINEE      CLOUDY    64  63  96 CALM      29.64F
SAWYER-GWINN   PTCLDY    57  55  91 CALM      29.63F
$$
MIZ001>003-009>011-084-231000-
WESTERN UPPER MICHIGAN

CITY           SKY/WX    TMP DP  RH WIND       PRES   REMARKS
IRON MOUNTAIN  FOG       55  53  93 CALM      29.63F VSB 1
HOUGHTON       CLEAR     55  48  77 W8        29.59F
COPPER HARBOR    N/A     55  48  77 W3        29.57S
IRONWOOD       CLEAR     56  52  86 SW7       29.65F
$$

ABBREVIATIONS USED IN REMARKS
   TC - TEMPERATURE IN CELSIUS
  WCI - WIND CHILL INDEX
   HX - HEAT INDEX
  VSB - VISIBILITY





USA.gov is the U.S. government's official web portal to all federal, state and local government web resources and services.